Tracking 29892 objects as of 21-Nov-2024
HD Live streaming from Space Station
objects crossing your sky now

SL-3 DEB

Track SL-3 DEB now!
10-day predictions


NORAD ID: 14950
Int'l Code: 1977-117C
Perigee: 841.4 km
Apogee: 898.5 km
Inclination: 81.3 °
Period: 102.2 minutes
Semi major axis: 7240 km
RCS: 0.0104 m2 (small)
Launch date: December 14, 1977
Source: Commonwealth of Independent States (former USSR) (CIS)
Launch site: PLESETSK MISSILE AND SPACE COMPLEX (PKMTR)

Note: This is SATELLITE DEBRIS
Your satellite tracking list
Your tracking list is empty




NASA's NSSDC Master Catalog

Two Line Element Set (TLE):
1 14950U 77117C   24325.00365119  .00000074  00000-0  35237-4 0  9998
2 14950  81.2527 166.5720 0039461 122.0090   3.1455 14.08996466411445
Source of the keplerian elements: AFSPC